Overview Statistics Trail Chart Weather Telemetry Raw packets
 

This is the latest recevied weather packets stored in our database for station/object OE5MMP-13. If no packets are shown the sender has not sent any weather packets the latest 10 day(s).

<< 40 41 42 43 44 45 46 >>
Time Temp. Humidity Pressure Rain* Wind** Luminosity Snow
1788071604 20.56° C 64% 1018.3 hPa 0 mm - 213 W/m² -
1788071004 19.44° C 66% 1018.3 hPa 0 mm - 320 W/m² -
1788070404 19.44° C 67% 1018.2 hPa 0 mm - 108 W/m² -
1788069804 18.89° C 69% 1018.2 hPa 0 mm - 278 W/m² -
1788069204 18.89° C 70% 1018.2 hPa 0 mm - 112 W/m² -
1788068604 18.33° C 70% 1018.1 hPa 0 mm - 112 W/m² -
1788068004 18.33° C 70% 1018.1 hPa 0 mm - 101 W/m² -
1788067404 17.78° C 69% 1017.9 hPa 0 mm - 149 W/m² -
1788066804 17.78° C 69% 1018.1 hPa 0 mm - 55 W/m² -
1788066204 17.78° C 67% 1018.1 hPa 0 mm - 56 W/m² -
1788065604 17.78° C 66% 1018.2 hPa 0 mm - 21 W/m² -
1788065004 17.78° C 66% 1018.1 hPa 0 mm - 12 W/m² -
1788064404 17.78° C 66% 1018.1 hPa 0 mm - 7 W/m² -
1788063804 17.78° C 66% 1018.1 hPa 0 mm - 5 W/m² -
1788063204 17.78° C 66% 1018.2 hPa 0 mm - 0 W/m² -
1788062604 18.33° C 65% 1018.4 hPa 0 mm - 0 W/m² -
1788062009 18.33° C 65% 1018.4 hPa 0 mm - 0 W/m² -
1788061403 18.33° C 65% 1018.4 hPa 0 mm - 0 W/m² -
1788060804 18.33° C 65% 1018.4 hPa 0 mm - 0 W/m² -
1788060203 18.33° C 65% 1018.5 hPa 0 mm - 0 W/m² -
1788059604 18.33° C 65% 1018.5 hPa 0 mm - 0 W/m² -
1788059003 18.33° C 65% 1018.5 hPa 0 mm - 0 W/m² -
1788058403 18.33° C 65% 1018.5 hPa 0 mm - 0 W/m² -
1788057803 18.33° C 66% 1018.4 hPa 0 mm - 0 W/m² -
1788057203 18.33° C 67% 1018.4 hPa 0 mm - 0 W/m² -

* Rain latest hour (hover to see other rain measurements)
** Current wind speed in m/s (hover to see current wind gust speed)